Tracking 18673 objects as of 25-June-2017
HD Live streaming from Space Station
objects crossing your sky now

COSMOS 1629

Track COSMOS 1629 now!
COSMOS 1629 is classified as:


NORAD ID: 15574
Int'l Code: 1985-016A
Perigee: 35,784.4 km
Apogee: 35,830.1 km
Inclination: 14.3 °
Period: 1,436.8 minutes
Semi major axis: 42178 km
RCS: 1.2589 m2 (large)
Launch date: February 21, 1985
Source: Commonwealth of Independent States (former USSR) (CIS)
Launch site: TYURATAM MISSILE AND SPACE COMPLEX (TTMTR)
Your satellite tracking list
Your tracking list is empty





NASA's NSSDC Master Catalog

Two Line Element Set (TLE):
1 15574U 85016A   17175.54300963 +.00000075 +00000-0 +00000-0 0  9995
2 15574 014.2546 343.9598 0005418 193.3289 126.0853 01.00223459117561
Source of the keplerian elements: AFSPC